Regional Weather Roundup
Issued by NWS Northern Indiana

Home | Current Version | Previous Version | Text Only | Print | Product List | Glossary Off
Versions: 1 2 3 4 5 6 7 8 9 10 11 12 13 14 15 16 17 18 19 20 21 22 23 24 25 26 27 28 29 30 31 32 33 34 35 36 37 38 39 40 41 42 43 44 45 46 47 48 49 50

000
ASUS43 KIWX 211201
RWRIWX

KIWX WEATHER ROUNDUP
NATIONAL WEATHER SERVICE NORTHERN INDIANA
800 AM EDT SAT OCT 21 2017

NOTE: "FAIR" INDICATES FEW OR NO CLOUDS BELOW 12,000 FEET WITH NO
SIGNIFICANT WEATHER AND/OR OBSTRUCTIONS TO VISIBILITY.

* THESE STATIONS ARE NOT UNDER NWS QUALITY CONTROL. THEY ALSO MAY NOT
  REPORT WEATHER SUCH AS PRECIPITATION OR FOG.

INZ001>027-211300-
NORTHERN INDIANA

CITY           SKY/WX    TMP DP  RH WIND       PRES   REMARKS
GARY*          MOCLDY    59  48  67 S9        30.10R
SOUTH BEND     CLOUDY    57  50  77 S7        30.15R
6HR MIN TEMP:  56; 6HR MAX TEMP:  59;

ELKHART*       CLEAR     55  48  76 S5        30.15
GOSHEN         PTCLDY    55  47  74 SE9       30.16R
6HR MIN TEMP:  55; 6HR MAX TEMP:  61;

MONTICELLO*    MOCLDY    55  51  88 SE3       30.14S
6HR MIN TEMP:  54; 6HR MAX TEMP:  58;

FORT WAYNE     MOCLDY    50  47  89 SE5       30.19S
6HR MIN TEMP:  49; 6HR MAX TEMP:  55;

PERU/GRISSOM   MOCLDY    54  51  90 S6        30.16S
6HR MIN TEMP:  52; 6HR MAX TEMP:  55;


$$
INZ028>050-211300-
CENTRAL INDIANA

CITY           SKY/WX    TMP DP  RH WIND       PRES   REMARKS
LAFAYETTE      MOCLDY    53  49  86 S3        30.15R
6HR MIN TEMP:  51; 6HR MAX TEMP:  58;

KOKOMO*        CLOUDY    54  50  86 S5        30.18S
6HR MIN TEMP:  51; 6HR MAX TEMP:  56;

MUNCIE*        MOCLDY    58  50  75 S5        30.20R
6HR MIN TEMP:  58; 6HR MAX TEMP:  63;

INDIANAPOLIS   CLOUDY    53  49  86 SE5       30.19R
6HR MIN TEMP:  53; 6HR MAX TEMP:  57;


$$
MIZ043>046-050>051-056>058-064>065-071>073-077>080-211300-
SOUTHWEST LOWER MICHIGAN

CITY           SKY/WX    TMP DP  RH WIND       PRES   REMARKS
BATTLE CREEK   PTCLDY    54  49  83 S6        30.17R
6HR MIN TEMP:  54; 6HR MAX TEMP:  59;

BENTON HARBOR  CLOUDY    57  48  72 SE9       30.11F
6HR MIN TEMP:  57; 6HR MAX TEMP:  63;

COLDWATER*     MOCLDY    56  50  79 S6        30.17S
6HR MIN TEMP:  55; 6HR MAX TEMP:  60;

HILLSDALE*     PTCLDY    52  48  87 S6        30.19S FOG
HOLLAND        CLOUDY    56  49  77 S7        30.12S
6HR MIN TEMP:  52; 6HR MAX TEMP:  56;

GRAND RAPIDS   MOCLDY    53  50  89 S9        30.13S
6HR MIN TEMP:  52; 6HR MAX TEMP:  59;

KALAMAZOO      CLOUDY    56  47  71 S6        30.16S
6HR MIN TEMP:  54; 6HR MAX TEMP:  59;

STURGIS*       PTCLDY    54  48  81 CALM      30.16S
6HR MIN TEMP:  54; 6HR MAX TEMP:  56;

THREE RIVERS*  FAIR      55  48  79 CALM      30.16S
6HR MIN TEMP:  53; 6HR MAX TEMP:  57;


$$
OHZ001>008-015>018-024>025-211300-
NORTHWEST OHIO

CITY           SKY/WX    TMP DP  RH WIND       PRES   REMARKS
DEFIANCE       MOCLDY    52  49  89 CALM      30.21R
6HR MIN TEMP:  49; 6HR MAX TEMP:  53;

FINDLAY        CLOUDY    51  46  83 SE3       30.22R
6HR MIN TEMP:  51; 6HR MAX TEMP:  55;

TOLEDO EXPRESS PTCLDY    50  50 100 SE3       30.21R
6HR MIN TEMP:  49; 6HR MAX TEMP:  57;

TOLEDO METCALF MOCLDY    50  45  83 S5        30.23R
6HR MIN TEMP:  50; 6HR MAX TEMP:  55;

LIMA           PTCLDY    53  50  89 S6        30.22R
6HR MIN TEMP:  53; 6HR MAX TEMP:  57;


$$
AND FOR LAKE MICHIGAN COASTAL AND OPEN LAKE BUOY OBSERVATIONS

STATION/POSITION TEMP    WIND        PRES    VSBY  WAVE
                 AIR SEA DIR/SP/G                  HT/PER
                 (F)     (DEG/KT/KT) (MB)    (MI)  (FT/S)
CALUMET HARBOR    62     180/ 11/ 16 1017.7R
MICHIGAN CITY     61     160/ 13/ 16   N/A
BURNS HARBOR      60     180/ 14/ 18 1019.0F
SAINT JOSEPH      60     150/  2/  5 1019.6
SOUTH LAKE BUOY   62 61  180/ 16/ 19 1017.9          2/ 4
4 MI NW BRIDGMAN  61 59  180/ 12/ 14 1019.8R         2/ 3
MICHIGAN CITY     59 58  180/ 14/ 17   N/A           1/ 2

$$
&&



USA.gov is the U.S. government's official web portal to all federal, state and local government web resources and services.